Regional Weather Roundup
Issued by NWS Charleston, WV

Home | Current Version | Previous Version | Text Only | Print | Product List | Glossary Off
Versions: 1 2 3 4 5 6 7 8 9 10 11 12 13 14 15 16 17 18 19 20 21 22 23 24 25 26 27 28 29 30 31 32 33 34 35 36 37 38 39 40 41 42 43 44 45 46 47 48 49

000
ASUS41 KRLX 271510
RWRRLX
West Virginia Regional Weather Roundup
National Weather Service Charleston WV
1100 AM EDT WED MAY 27 2015

Note: "fair" indicates few or no clouds below 12,000 feet with no
significant weather and/or obstructions to visibility.

WVZ003-271600-
Northern Panhandle of West Virginia

CITY           SKY/WX    TMP DP  RH WIND       PRES   REMARKS
WHEELING       CLOUDY    72  64  78 SW9       30.16R
$$

WVZ009-271600-
Northwest West Virginia

CITY           SKY/WX    TMP DP  RH WIND       PRES   REMARKS
PARKERSBURG    PTSUNNY   72  66  81 SW9       30.20S
$$

WVZ006-271600-
Western West Virginia

CITY           SKY/WX    TMP DP  RH WIND       PRES   REMARKS
HUNTINGTON     PTSUNNY   74  67  78 SW7       30.19R
$$

WVZ015-271600-
West Central West Virginia

CITY           SKY/WX    TMP DP  RH WIND       PRES   REMARKS
CHARLESTON     PTSUNNY   74  65  73 SW9       30.20R
$$

WVZ022-031-271600-
North Central West Virginia

CITY           SKY/WX    TMP DP  RH WIND       PRES   REMARKS
CLARKSBURG     CLOUDY    72  67  84 SW6       30.20S
MORGANTOWN     CLOUDY    71  64  78 VRB3      30.21R
$$

WVZ025-035-042-045-271600-
Southern West Virginia

CITY           SKY/WX    TMP DP  RH WIND       PRES   REMARKS
BECKLEY        MOSUNNY   71  57  61 W12       30.28R
LOGAN          CLOUDY    73  64  73 CALM      30.21R
BLUEFIELD      PTSUNNY   74  59  59 W8        30.30R
LEWISBURG      PTSUNNY   73  61  65 W5        30.26S
$$

WVZ047-271600-
Northern Mountains of West Virginia

CITY           SKY/WX    TMP DP  RH WIND       PRES   REMARKS
ELKINS         CLOUDY    69  63  81 S5        30.25R
$$

WVZ052-271600-
Eastern Panhandle of West Virginia

CITY           SKY/WX    TMP DP  RH WIND       PRES   REMARKS
MARTINSBURG    PTSUNNY   81  69  67 S8        30.16S
PETERSBURG     RAIN      71  64  80 CALM      30.20S
$$


USA.gov is the U.S. government's official web portal to all federal, state and local government web resources and services.